When you browse on this site, cookies collect data to enhance your experience and personalize the content and advertising you see.
Visit our Privacy Policy to learn more. By continuing to use the site, you agree to this use of cookies and data.
  • en Suisse
  • Liste des pays
  • À 7 jours
  • Température de l'eau
  • Carte satellitaire
  • Carte météo
  • Widgets météo
  • user-avatar
    Se connecter

    Météo par heure à Fier

    Ce jour, 23 Mars, Samedi

    Heure Température Précipitation Vent Pression Humidité
    00:00 +13°C° 0 mm 2 m/s 765 mmHg 57%
    01:00 +13°C° 0 mm 2 m/s 765 mmHg 56%
    02:00 +13°C° 0 mm 2 m/s 765 mmHg 56%
    03:00 +13°C° 0 mm 2 m/s 765 mmHg 57%
    04:00 +12°C° 0 mm 2 m/s 765 mmHg 57%
    05:00 +13°C° 0 mm 2 m/s 765 mmHg 58%
    06:00 +13°C° 0 mm 2 m/s 765 mmHg 58%
    07:00 +14°C° 0 mm 2 m/s 765 mmHg 59%
    08:00 +16°C° 0 mm 2 m/s 765 mmHg 52%
    09:00 +18°C° 0 mm 2 m/s 765 mmHg 44%
    10:00 +20°C° 0 mm 2 m/s 764 mmHg 37%
    11:00 +21°C° 0 mm 2 m/s 764 mmHg 35%
    12:00 +22°C° 0 mm 3 m/s 764 mmHg 34%
    13:00 +23°C° 0 mm 4 m/s 764 mmHg 33%
    14:00 +22°C° 0 mm 4 m/s 763 mmHg 37%
    15:00 +21°C° 0 mm 5 m/s 763 mmHg 41%
    16:00 +21°C° 0 mm 6 m/s 763 mmHg 46%
    17:00 +19°C° 0 mm 5 m/s 763 mmHg 54%
    18:00 +17°C° 0 mm 4 m/s 763 mmHg 62%
    19:00 +14°C° 0 mm 3 m/s 763 mmHg 70%
    20:00 +14°C° 0 mm 2 m/s 763 mmHg 70%
    21:00 +14°C° 0 mm 2 m/s 764 mmHg 70%
    22:00 +14°C° 0 mm 1 m/s 764 mmHg 70%
    23:00 +14°C° 0 mm 1 m/s 764 mmHg 68%

    Demain, 24 Mars, Dimanche

    Heure Température Précipitation Vent Pression Humidité
    00:00 +14°C° 0 mm 1 m/s 764 mmHg 66%
    01:00 +13°C° 0 mm 1 m/s 764 mmHg 64%
    02:00 +13°C° 0 mm 1 m/s 764 mmHg 62%
    03:00 +13°C° 0 mm 1 m/s 764 mmHg 60%
    04:00 +13°C° 0 mm 1 m/s 764 mmHg 58%
    05:00 +13°C° 0 mm 1 m/s 764 mmHg 59%
    06:00 +14°C° 0 mm 1 m/s 764 mmHg 59%
    07:00 +14°C° 0 mm 2 m/s 764 mmHg 60%
    08:00 +18°C° 0 mm 1 m/s 764 mmHg 53%
    09:00 +20°C° 0 mm 1 m/s 764 mmHg 46%
    10:00 +20°C° 0 mm 0 m/s 764 mmHg 39%
    11:00 +23°C° 0 mm 2 m/s 764 mmHg 39%
    12:00 +22°C° 0 mm 3 m/s 764 mmHg 39%
    13:00 +23°C° 0 mm 4 m/s 763 mmHg 39%
    14:00 +22°C° 0 mm 4 m/s 763 mmHg 42%
    15:00 +21°C° 0 mm 4 m/s 763 mmHg 45%
    16:00 +20°C° 0 mm 4 m/s 762 mmHg 48%
    17:00 +18°C° 0 mm 3 m/s 763 mmHg 53%
    18:00 +16°C° 0 mm 2 m/s 763 mmHg 58%
    19:00 +14°C° 0 mm 1 m/s 763 mmHg 64%
    20:00 +14°C° 0 mm 1 m/s 763 mmHg 64%
    21:00 +14°C° 0 mm 1 m/s 763 mmHg 64%
    22:00 +12°C° 0 mm 0 m/s 763 mmHg 65%
    23:00 +12°C° 0 mm 0 m/s 763 mmHg 65%

    Après-demain, 25 Mars, Lundi

    Heure Température Précipitation Vent Pression Humidité
    00:00 +12°C° 0 mm 0 m/s 763 mmHg 65%
    01:00 +12°C° 0 mm 0 m/s 763 mmHg 65%
    02:00 +11°C° 0 mm 0 m/s 762 mmHg 65%
    03:00 +11°C° 0 mm 0 m/s 762 mmHg 65%
    04:00 +11°C° 0 mm 0 m/s 762 mmHg 66%
    05:00 +12°C° 0 mm 0 m/s 762 mmHg 64%
    06:00 +13°C° 0 mm 1 m/s 762 mmHg 63%
    07:00 +14°C° 0 mm 1 m/s 762 mmHg 61%
    08:00 +16°C° 0 mm 1 m/s 762 mmHg 56%
    09:00 +18°C° 0 mm 1 m/s 761 mmHg 51%
    10:00 +20°C° 0 mm 1 m/s 761 mmHg 46%
    11:00 +19°C° 0 mm 2 m/s 761 mmHg 46%
    12:00 +20°C° 0 mm 3 m/s 760 mmHg 46%
    13:00 +21°C° 0 mm 3 m/s 760 mmHg 46%
    14:00 +20°C° 0 mm 3 m/s 759 mmHg 49%
    15:00 +19°C° 0 mm 3 m/s 759 mmHg 52%
    16:00 +19°C° 0 mm 3 m/s 758 mmHg 55%
    17:00 +17°C° 0 mm 2 m/s 758 mmHg 63%
    18:00 +15°C° 0 mm 1 m/s 758 mmHg 70%
    19:00 +13°C° 0 mm 0 m/s 759 mmHg 77%
    20:00 +13°C° 0 mm 1 m/s 759 mmHg 75%
    21:00 +13°C° 0 mm 1 m/s 759 mmHg 73%
    22:00 +13°C° 0 mm 1 m/s 759 mmHg 71%
    23:00 +13°C° 0 mm 1 m/s 758 mmHg 69%

    26 Mars, Mardi

    Heure Température Précipitation Vent Pression Humidité
    00:00 +12°C° 0 mm 1 m/s 758 mmHg 67%
    01:00 +12°C° 0 mm 1 m/s 758 mmHg 65%
    02:00 +12°C° 0 mm 1 m/s 758 mmHg 65%
    03:00 +12°C° 0 mm 1 m/s 758 mmHg 65%
    04:00 +12°C° 0 mm 1 m/s 758 mmHg 65%
    05:00 +12°C° 0 mm 1 m/s 758 mmHg 64%
    06:00 +13°C° 0 mm 1 m/s 758 mmHg 63%
    07:00 +13°C° 0 mm 1 m/s 758 mmHg 62%
    08:00 +15°C° 0 mm 1 m/s 758 mmHg 57%
    09:00 +16°C° 0 mm 2 m/s 759 mmHg 52%
    10:00 +18°C° 0 mm 2 m/s 759 mmHg 47%
    11:00 +18°C° 0 mm 3 m/s 759 mmHg 49%
    12:00 +18°C° 0 mm 4 m/s 759 mmHg 51%
    13:00 +19°C° 0 mm 6 m/s 759 mmHg 52%
    14:00 +16°C° 0.3 mm 6 m/s 759 mmHg 57%
    15:00 +14°C° 0.3 mm 6 m/s 759 mmHg 62%
    16:00 +13°C° 0.3 mm 5 m/s 759 mmHg 67%
    17:00 +12°C° 0.2 mm 5 m/s 759 mmHg 70%
    18:00 +12°C° 0.2 mm 4 m/s 760 mmHg 73%
    19:00 +11°C° 0.2 mm 3 m/s 760 mmHg 76%
    20:00 +11°C° 0 mm 3 m/s 760 mmHg 75%
    21:00 +11°C° 0 mm 3 m/s 761 mmHg 75%
    22:00 +10°C° 0 mm 3 m/s 761 mmHg 75%
    23:00 +10°C° 0 mm 3 m/s 761 mmHg 72%

    27 Mars, Mercredi

    Heure Température Précipitation Vent Pression Humidité
    00:00 +10°C° 0 mm 4 m/s 761 mmHg 68%
    01:00 +10°C° 0 mm 4 m/s 761 mmHg 65%
    02:00 +8°C° 0.1 mm 4 m/s 761 mmHg 64%
    03:00 +8°C° 0.1 mm 5 m/s 761 mmHg 64%
    04:00 +8°C° 0.1 mm 5 m/s 761 mmHg 63%
    05:00 +8°C° 0.1 mm 5 m/s 761 mmHg 62%
    06:00 +8°C° 0.1 mm 5 m/s 761 mmHg 61%
    07:00 +8°C° 0.1 mm 5 m/s 762 mmHg 60%
    08:00 +10°C° 0 mm 5 m/s 762 mmHg 55%
    09:00 +12°C° 0 mm 5 m/s 763 mmHg 50%
    10:00 +14°C° 0 mm 6 m/s 763 mmHg 44%
    11:00 +15°C° 0 mm 6 m/s 764 mmHg 42%
    12:00 +15°C° 0 mm 5 m/s 764 mmHg 40%
    13:00 +16°C° 0 mm 5 m/s 764 mmHg 38%
    14:00 +16°C° 0 mm 5 m/s 764 mmHg 38%
    15:00 +16°C° 0 mm 5 m/s 764 mmHg 39%
    16:00 +16°C° 0 mm 6 m/s 764 mmHg 40%
    17:00 +14°C° 0 mm 5 m/s 764 mmHg 44%
    18:00 +13°C° 0 mm 5 m/s 765 mmHg 47%
    19:00 +11°C° 0 mm 4 m/s 765 mmHg 51%
    20:00 +10°C° 0 mm 4 m/s 765 mmHg 52%
    21:00 +10°C° 0 mm 3 m/s 766 mmHg 52%
    22:00 +9°C° 0 mm 3 m/s 766 mmHg 52%
    23:00 +9°C° 0 mm 3 m/s 766 mmHg 52%

    28 Mars, Jeudi

    Heure Température Précipitation Vent Pression Humidité
    00:00 +8°C° 0 mm 3 m/s 766 mmHg 51%
    01:00 +8°C° 0 mm 3 m/s 766 mmHg 50%
    02:00 +7°C° 0 mm 3 m/s 766 mmHg 50%
    03:00 +7°C° 0 mm 3 m/s 766 mmHg 51%
    04:00 +7°C° 0 mm 3 m/s 766 mmHg 51%
    05:00 +7°C° 0 mm 3 m/s 767 mmHg 51%
    06:00 +8°C° 0 mm 3 m/s 767 mmHg 52%
    07:00 +8°C° 0 mm 3 m/s 767 mmHg 52%
    08:00 +10°C° 0 mm 3 m/s 767 mmHg 46%
    09:00 +13°C° 0 mm 2 m/s 767 mmHg 40%
    10:00 +15°C° 0 mm 2 m/s 767 mmHg 33%
    11:00 +16°C° 0 mm 2 m/s 767 mmHg 32%
    12:00 +17°C° 0 mm 2 m/s 767 mmHg 31%
    13:00 +17°C° 0 mm 2 m/s 767 mmHg 30%
    14:00 +17°C° 0 mm 3 m/s 766 mmHg 32%
    15:00 +17°C° 0 mm 3 m/s 766 mmHg 33%
    16:00 +17°C° 0 mm 4 m/s 766 mmHg 35%
    17:00 +14°C° 0 mm 4 m/s 766 mmHg 40%
    18:00 +13°C° 0 mm 3 m/s 767 mmHg 44%
    19:00 +11°C° 0 mm 3 m/s 767 mmHg 49%
    20:00 +11°C° 0 mm 3 m/s 767 mmHg 48%
    21:00 +10°C° 0 mm 3 m/s 768 mmHg 47%
    22:00 +10°C° 0 mm 3 m/s 768 mmHg 46%
    23:00 +9°C° 0 mm 3 m/s 768 mmHg 47%
    Voir plus